SCP
-0 -0 -0 -0 -0 -0 -0 -0 -0 0 0 0 0 -0 -0 -0 -0 0 -0 -0 -0 -0 -0 -0 -0 -0 -0 0 0 0 0 0 0 0 0 0 0 0 0 0 0 0 0 0 0 0 0 0 0
-0 0 -0 -0 -0 0 0 -0 -0 -0 0 0 0 0 0 -0 -0 -0 -0 -0 -0 -0 -0 -0 -0 -0 -0 -0 -0 0 0 0 0 0 0 0 0 0 0 0 0 0 0 0 0 0 0 0 0
0 -0 -0 -0 -0 -0 -0 -0 -0 -0 0 0 0 0 0 -0 -0 0 -0 -0 -0 -0 -0 -0 -0 -0 -0 -0 -0 -0 0 0 0 0 0 0 0 0 0 0 0 0 0 0 0 0 0 0 0
-0 0 0 0 -0 0 0 -0 -0 -0 0 -0 0 0 0 -0 -0 -0 -0 -0 -0 -0 -0 -0 -0 -0 -0 -0 -0 -0 -0 -0 -0 -0 -0 0 0 0 0 0 0 0 0 0 0 0 0 0 0
-0 -0 0 -0 -0 0 0 0 0 0 0 0 -0 0 0 0 -0 -0 -0 -0 -0 -0 -0 -0 -0 -0 -0 -0 -0 -0 -0 -0 -0 -0 -0 0 0 0 0 0 0 0 0 0 0 0 0 0 0
-0 -0 -0 -0 0 0 0 0 0 0 0 0 0 -0 -0 -0 -0 -0 -0 -0 -0 -0 -0 -0 -0 -0 -0 -0 -0 -0 -0 -0 -0 -0 0 0 0 0 0 0 0 0 0 0 0 0 0 0 0
-0 -0 0 -0 0 0 0 0 0 0 0 0 0 0 -0 -0 -0 -0 0 -0 0 -0 -0 -0 -0 -0 -0 -0 -0 -0 -0 -0 0 0 0 0 0 0 0 0 0 0 0 0 0 0 0 0 0
0 0 -0 0 -0 0 0 0 0 0 0 0 -0 0 0 -0 -0 -0 -0 -0 -0 -0 -0 -0 -0 -0 -0 -0 -0 -0 0 0 0 0 -0 -0 0 0 0 0 0 0 0 0 0 0 0 0 0
0 0 -0 0 0 0 0 0 0 0 0 -0 0 0 -0 -0 -0 -0 -0 -0 0 0 -0 -0 -0 -0 -0 -0 0 0 0 0 -0 0 0 0 0 0 0 0 0 0 0 0 0 0 0 0 0
-0 -0 -0 -0 0 0 0 0 0 0 0 0 0 -0 -0 -0 -0 -0 0 0 -0 -0 0 -0 -0 -0 -0 0 0 0 0 0 0 0 0 0 0 0 0 0 0 -0 0 0 0 0 0 0 0
-0 -0 -0 0 0 0 0 0 0 0 0 0 0 -0 -0 -0 -0 0 0 0 0 0 0 -0 0 0 0 0 0 0 0 0 0 0 0 0 0 0 0 0 0 0 0 0 0 0 0 0 0
0 0 0 -0 0 0 0 0 0 0 0 0 0 -0 -0 -0 -0 0 0 0 0 0 0 0 0 0 0 0 0 0 0 0 0 0 0 0 0 0 0 0 0 0 0 0 0 0 0 0 0
-0 0 0 0 0 0 0 0 -0 0 0 0 0 -0 -0 0 0 0 0 0 0 0 0 0 0 1 0 0 0 0 0 0 0 0 0 0 0 0 0 0 0 0 0 0 0 0 0 0 0
0 -0 0 0 0 0 0 0 0 0 0 0 0 0 0 -0 0 0 0 0 0 0 0 0 0 1 0 0 0 0 0 0 0 0 0 0 0 0 0 0 0 0 0 0 0 0 0 0 0
-0 0 0 0 0 0 0 0 0 -0 0 0 0 0 0 -0 0 0 0 0 0 1 0 1 1 0 0 0 0 0 0 0 0 0 0 0 0 0 0 0 0 0 0 0 0 0 0 0 0
-0 0 -0 0 0 0 0 -0 0 0 0 0 0 0 0 0 0 0 0 0 0 1 1 1 1 0 0 0 0 0 0 0 0 0 0 0 0 0 0 0 0 0 0 0 0 0 0 0 0
0 0 -0 0 0 0 0 -0 -0 0 0 0 0 0 0 0 0 0 0 1 0 0 0 0 0 0 0 0 0 0 0 0 0 0 0 0 0 0 0 0 0 0 0 0 0 0 0 0 0
0 -0 0 0 0 0 0 0 -0 0 0 0 0 0 0 0 1 1 1 1 0 0 0 0 0 0 0 -0 0 0 0 0 0 0 0 0 0 0 0 0 0 0 0 0 0 0 0 0 0
0 0 0 0 0 0 0 0 -0 0 0 0 0 0 0 1 1 1 1 1 0 0 0 0 0 -0 0 0 0 0 0 0 0 0 0 0 0 0 0 0 0 0 0 0 0 0 0 0 0
0 0 -0 0 0 0 -0 0 0 0 0 0 0 0 0 0 0 0 1 1 1 0 0 0 0 -0 0 0 0 0 0 0 0 0 0 0 0 0 0 0 0 0 0 0 0 0 0 0 0
0 -0 -0 -0 0 0 -0 0 0 0 0 0 0 0 0 0 0 0 1 1 0 0 0 0 0 -0 0 0 0 0 0 0 0 0 0 0 0 0 0 0 0 0 0 0 0 0 0 0 0
-0 0 0 0 0 0 -0 0 0 -0 0 0 0 0 0 0 0 0 1 0 0 0 0 0 0 0 0 0 0 0 0 0 0 0 0 0 0 0 0 0 0 0 0 0 0 0 0 0 0
0 0 0 0 0 0 -0 0 0 0 0 0 0 -0 -0 0 0 -1 0 0 0 0 0 0 -0 0 0 0 0 0 0 0 0 0 0 0 0 0 0 0 0 0 0 0 0 0 0 0 0
0 0 -0 0 -0 0 0 -0 0 0 0 0 0 0 0 0 -0 -0 -0 1 0 0 0 0 -0 0 0 0 0 0 0 0 0 0 0 0 0 0 0 0 0 0 0 0 0 0 0 0 0
0 -0 0 0 0 0 -0 0 0 0 0 0 0 0 0 0 0 -0 -0 0 0 0 0 0 0 0 0 0 0 0 0 0 0 0 0 0 0 0 0 0 0 0 0 0 0 0 0 0 0
0 0 0 -0 0 0 0 0 0 0 0 0 0 0 0 1 0 -0 0 0 0 0 0 0 0 0 0 0 0 0 0 0 0 0 0 0 0 0 0 0 0 0 0 0 0 0 0 0 0
0 0 -0 0 0 0 0 0 0 0 0 0 0 0 0 0 0 -0 -0 0 -0 0 0 0 0 0 0 0 0 0 0 0 0 0 0 0 0 0 0 0 0 0 0 0 0 0 0 0 0
0 0 0 0 -0 0 0 0 -0 0 0 0 -0 -0 0 0 1 0 0 0 0 0 0 0 0 0 0 0 0 0 0 0 0 0 0 0 0 0 0 0 0 0 0 0 0 0 0 0 0
0 0 0 0 0 0 0 0 0 0 -0 0 0 0 0 0 -0 0 0 0 -0 -0 -0 0 0 0 0 0 0 0 0 0 0 0 0 0 0 0 0 0 0 0 0 0 0 0 0 0 0
0 0 0 0 0 0 0 0 0 0 0 0 0 0 0 0 -0 -0 -0 -0 -0 -0 -0 0 0 0 0 0 0 0 0 0 0 0 0 0 0 0 0 0 0 0 0 0 0 0 0 0 0
Wind_Speed_500mb
19 15 11 25 17 21 11 33 18 14 15 12 11 15 27 26 32 11 27 23 27 24 20 24 22 21 18 16 12 10 8 7 6 6 6 5 6 8 9 9 9 8 9 10 11 12 13 14 16
7 17 21 34 26 18 8 19 25 26 22 17 11 9 13 31 26 36 33 29 26 26 25 17 21 19 17 14 12 10 9 8 6 5 5 6 8 9 9 10 11 13 15 16 18 17 17 18 19
13 19 30 28 30 15 18 28 34 26 21 8 12 13 13 17 24 20 34 32 29 27 26 27 24 20 18 16 14 11 9 7 6 6 6 7 9 10 11 13 15 16 16 19 19 19 19 20 21
11 23 30 21 41 31 16 24 24 25 15 4 16 25 25 25 18 33 36 33 30 27 25 27 24 22 19 16 14 12 11 10 9 8 7 7 8 11 13 15 18 18 20 21 22 22 22 22 23
21 27 25 30 42 20 21 14 13 15 9 14 1 21 26 18 29 37 35 31 30 28 24 27 25 21 18 16 15 14 13 12 10 8 8 9 12 15 17 19 21 23 24 25 25 24 23 24 24
32 35 27 29 23 16 8 12 15 14 12 14 25 30 26 27 33 33 31 31 29 24 29 25 23 20 18 17 17 15 12 10 9 10 13 17 20 22 23 24 25 26 27 28 29 29 29 29 30
34 26 30 36 40 36 13 12 20 16 10 13 23 25 26 30 32 34 32 31 30 28 24 24 23 22 20 18 16 12 9 8 10 15 20 22 22 21 22 22 24 27 28 29 31 33 34 35 36
40 27 39 25 26 11 21 13 13 14 15 15 14 15 33 37 37 35 33 31 29 28 25 26 21 22 17 17 12 7 5 9 14 20 23 23 30 30 32 25 29 30 33 35 37 37 38 38 39
26 26 28 29 23 7 26 18 15 12 11 11 11 7 45 44 40 38 35 33 31 29 28 23 25 21 12 13 11 8 6 11 23 26 20 19 12 17 16 32 36 34 34 35 34 36 37 37 31
34 25 38 27 4 20 29 14 29 15 18 19 20 31 44 46 43 41 37 35 33 32 29 25 21 17 17 10 10 6 9 13 17 17 19 15 23 26 30 30 44 47 46 40 45 44 37 29 25
40 36 33 18 14 21 11 12 22 21 27 29 28 41 45 45 42 39 37 36 34 32 28 25 23 23 19 11 7 3 5 10 18 19 19 22 19 28 26 25 25 29 29 25 28 25 24 28 27
37 41 48 36 5 22 17 8 17 22 10 33 33 40 45 45 43 40 39 37 36 33 29 21 25 18 14 9 6 4 6 11 8 18 17 23 21 30 31 27 24 24 25 28 26 24 28 29 29
42 39 36 41 14 23 27 16 21 29 12 10 40 41 44 44 41 39 38 38 36 33 31 24 25 24 19 17 11 2 6 6 9 10 22 26 25 33 23 23 22 23 23 25 26 26 28 28 27
28 44 43 33 31 24 23 26 20 26 31 22 38 42 42 44 44 41 40 38 37 34 32 27 24 22 22 16 11 6 10 7 6 11 23 28 22 27 18 20 20 21 23 24 24 27 26 24 25
38 27 33 27 29 29 23 30 24 31 38 31 36 41 41 43 44 43 39 36 34 32 31 29 26 21 20 16 5 5 2 3 6 11 27 27 24 19 19 18 19 20 22 24 23 27 20 22 23
28 30 32 38 34 18 22 34 36 40 32 37 41 41 39 42 43 41 39 35 32 29 32 27 19 21 14 16 1 8 3 2 4 7 11 21 19 18 17 16 18 22 20 21 22 23 20 21 22
25 30 36 40 35 25 30 36 38 53 39 39 41 40 42 41 41 40 38 37 43 46 28 23 23 16 19 10 3 8 5 3 3 6 9 17 16 16 15 16 20 23 19 17 20 18 15 16 17
18 32 30 16 29 22 34 32 31 11 25 37 41 42 40 42 43 40 42 43 42 33 32 27 24 22 15 6 4 7 3 2 4 6 9 11 13 15 14 17 20 21 17 18 16 21 15 16 17
21 26 22 18 4 7 28 30 35 35 28 37 43 43 42 40 42 41 42 35 38 33 31 31 27 20 17 10 14 10 6 2 2 5 10 10 10 14 14 13 16 18 19 21 21 13 19 18 18
23 25 26 19 8 23 29 32 32 30 31 35 39 42 46 44 45 51 46 41 37 34 30 28 26 21 17 17 18 16 11 7 6 3 7 9 11 12 12 15 15 19 18 23 22 23 17 18 22
25 28 24 27 15 21 30 25 28 27 25 35 38 43 47 51 49 58 49 48 42 37 34 31 28 26 22 23 21 17 11 5 6 7 5 7 10 11 12 13 13 19 17 21 24 22 21 19 17
25 28 19 24 25 25 39 26 35 40 37 35 44 48 49 50 51 58 54 52 46 40 36 31 28 25 28 25 18 17 10 8 11 8 7 4 8 9 11 12 13 16 17 21 22 21 23 18 18
13 6 13 19 24 29 32 19 30 17 25 27 36 52 51 50 55 57 59 55 47 44 41 39 34 28 28 30 21 15 15 16 12 10 9 15 8 10 7 8 11 13 11 18 20 21 22 20 18
25 12 26 25 25 28 36 34 29 27 33 26 31 42 45 48 53 55 58 56 54 46 44 38 36 32 32 30 26 22 23 18 16 13 7 6 4 5 6 3 5 8 7 12 14 15 18 18 16
25 21 20 23 23 26 34 34 31 9 11 19 21 33 52 48 56 58 64 63 57 51 43 38 37 39 36 32 27 24 22 19 17 15 11 12 7 6 3 4 5 4 7 8 9 14 13 16 14
24 24 23 30 23 23 15 13 23 23 24 25 18 28 24 36 54 61 66 63 59 58 52 47 43 40 38 34 30 26 23 17 15 17 13 9 10 9 6 4 2 3 3 2 6 7 7 8 8
27 21 26 26 29 24 24 21 11 23 22 25 31 33 31 35 51 63 59 58 67 59 54 46 47 43 41 36 32 28 24 21 18 20 18 15 15 10 11 8 3 3 2 2 1 5 7 7 7
24 24 16 18 28 31 30 23 20 17 16 10 24 29 31 47 57 56 55 60 67 56 55 50 49 47 43 38 34 29 25 23 21 17 19 17 16 13 10 7 3 3 3 2 3 5 6 6 7
10 24 14 17 22 23 24 15 29 10 23 17 24 42 32 28 62 49 53 59 63 57 57 55 53 50 46 41 36 32 27 24 21 18 18 16 14 13 11 7 3 4 3 4 4 4 2 7 10
19 31 34 20 28 15 26 28 23 10 25 18 26 26 9 31 36 42 48 58 62 64 61 58 56 52 48 44 38 34 30 27 25 22 18 17 13 11 9 9 6 3 2 6 5 5 7 10 13
Wind_Direction_500mb
284 291 297 262 246 244 334 92 86 122 124 63 52 332 32 28 31 95 134 125 129 131 131 134 140 141 142 139 138 130 120 102 90 80 70 48 30 24 19 18 13 6 354 341 328 318 310 305 303
248 263 265 269 252 248 95 304 70 64 96 111 107 110 78 62 66 121 124 130 133 124 123 142 139 141 148 143 144 134 118 108 95 69 42 37 37 37 28 16 1 349 342 333 324 319 315 311 305
249 256 271 241 250 276 233 104 93 99 115 166 111 40 37 89 100 117 135 134 130 127 137 154 154 161 147 144 137 129 118 111 100 89 73 59 44 24 9 356 349 344 348 346 343 333 320 313 308
241 243 246 259 261 13 35 78 97 119 99 228 112 89 83 126 114 138 134 135 134 128 143 140 144 148 147 141 135 131 128 124 115 101 74 45 12 342 338 331 331 329 329 330 330 328 324 323 322
238 261 259 240 263 83 66 59 128 102 125 141 201 99 101 117 128 135 137 134 131 141 139 142 147 145 145 141 139 132 122 110 93 74 42 7 348 336 329 325 322 321 320 320 319 318 317 315 313
237 237 255 251 231 89 119 161 138 172 127 103 109 122 105 134 140 143 139 138 138 135 142 136 145 146 145 143 135 130 118 96 66 27 4 348 339 332 325 321 320 319 319 317 316 314 311 309 307
249 245 253 271 68 256 123 171 167 146 163 141 141 112 134 147 146 145 143 142 139 142 142 132 137 148 146 141 131 122 103 63 22 1 351 347 344 344 339 338 336 331 324 319 314 310 307 305 304
247 266 275 259 279 100 93 186 157 172 112 110 176 139 156 151 150 146 145 142 141 140 135 134 145 130 121 141 130 113 58 14 358 354 355 5 16 4 349 351 342 335 329 323 318 313 308 304 303
243 264 255 250 238 153 121 178 175 185 129 178 108 126 150 153 152 149 148 146 144 142 140 139 143 166 134 118 88 45 8 1 358 357 1 23 14 4 9 339 342 335 330 326 319 314 310 310 314
239 238 251 277 235 259 124 229 150 177 193 161 137 122 146 152 156 155 154 152 149 148 150 149 162 147 128 133 92 78 32 349 341 355 10 25 4 359 10 351 349 344 345 357 338 339 357 342 313
225 249 256 277 276 278 98 190 145 212 179 173 164 146 154 158 161 160 157 159 157 155 153 156 191 150 156 177 103 49 9 19 355 4 16 357 5 350 350 348 346 341 334 338 338 340 323 327 324
233 242 261 283 163 256 250 233 180 214 294 153 163 160 162 165 166 165 162 160 159 162 160 163 170 155 159 150 152 46 2 11 14 348 5 359 358 350 350 349 355 353 349 343 344 338 337 339 335
230 249 234 253 273 255 249 227 261 192 188 207 159 167 171 174 173 171 169 167 167 167 168 182 173 186 211 233 258 278 18 341 1 5 348 352 356 350 353 359 359 357 353 353 353 342 343 347 346
226 239 257 255 233 233 250 232 228 234 166 196 166 176 179 180 180 176 178 176 174 176 174 177 181 212 233 240 225 296 292 3 15 344 343 349 0 354 13 1 1 357 356 1 358 356 358 354 1
249 267 234 243 238 245 229 247 217 237 181 183 177 185 182 189 187 185 185 184 181 178 174 181 204 219 218 219 216 149 93 64 16 358 342 351 1 12 31 4 4 3 1 2 1 5 7 16 14
235 235 244 218 219 214 218 242 207 223 209 185 190 191 191 192 192 188 188 186 182 176 176 174 171 197 209 201 119 139 178 75 15 8 354 0 8 26 15 12 5 13 3 5 7 14 18 24 24
209 244 218 262 171 229 205 249 251 204 187 206 194 203 197 191 190 189 188 183 191 196 198 197 203 209 181 176 255 216 272 103 18 19 8 4 15 21 32 16 9 25 22 20 15 19 23 22 17
241 207 252 229 183 205 234 234 253 167 186 215 199 206 197 195 190 189 189 197 205 190 200 208 190 195 188 262 229 156 154 117 46 30 14 39 16 21 53 8 29 32 33 20 23 16 14 1 343
307 310 287 198 22 242 231 247 240 173 216 215 208 203 198 197 208 200 196 194 178 197 205 208 205 210 230 207 152 178 207 178 37 25 43 44 46 30 45 27 36 34 34 30 22 20 1 10 354
255 256 255 271 145 251 243 233 227 216 200 221 222 210 205 202 205 204 191 190 187 183 197 195 203 211 190 161 167 181 171 169 154 124 43 63 41 49 26 60 37 70 20 26 26 20 10 1 2
239 256 252 254 169 242 265 261 237 226 200 214 229 228 218 205 203 186 188 191 189 188 188 193 199 206 170 181 190 187 194 159 109 55 54 53 55 59 60 60 66 40 47 28 26 35 9 12 10
260 210 241 273 253 252 203 251 216 221 224 216 224 228 228 212 205 187 189 191 195 188 185 189 189 189 182 183 180 169 183 178 172 156 178 60 89 86 79 77 62 58 41 46 35 31 35 28 18
278 56 254 261 250 252 251 241 280 297 205 220 220 224 223 221 204 191 195 197 195 189 197 181 189 187 189 178 182 189 169 193 153 170 134 185 114 107 95 73 51 49 47 33 35 29 33 23 29
289 247 249 243 250 241 240 261 261 242 221 221 229 236 207 212 202 196 188 193 194 190 182 184 187 180 189 188 190 170 187 167 172 169 158 159 150 113 114 85 40 37 37 34 17 33 26 30 46
223 249 257 226 222 234 236 223 233 295 253 210 246 253 200 186 197 191 182 188 193 189 185 179 181 182 186 188 190 192 187 175 176 173 170 183 186 198 193 97 120 40 50 19 39 29 19 28 46
196 239 258 291 289 316 117 223 240 250 257 294 292 288 307 177 198 188 184 193 192 192 185 187 181 179 183 184 187 184 186 173 172 155 199 177 193 210 220 158 141 13 21 353 26 358 49 36 36
279 228 260 282 277 274 280 262 247 217 222 233 248 243 228 222 197 182 185 193 190 191 189 180 180 180 180 179 181 183 172 177 181 187 177 195 187 223 186 196 220 330 342 223 191 353 48 45 26
258 306 280 231 256 268 274 258 282 148 178 308 342 313 229 218 176 179 193 192 190 189 188 183 181 182 179 179 181 182 177 178 186 183 161 189 195 181 194 199 251 312 323 207 180 345 5 25 358
238 244 247 339 296 294 289 268 59 190 302 4 329 324 357 326 159 179 188 192 189 187 187 183 182 181 179 178 179 181 181 179 180 181 185 190 195 196 191 220 260 312 311 195 210 201 8 325 327
283 286 295 294 285 335 319 291 320 292 286 289 298 347 53 99 230 201 184 186 186 187 186 184 183 183 181 177 178 182 181 182 183 180 179 175 172 183 194 217 229 263 238 201 199 258 275 302 311
Wind_Speed_850mb
19 15 11 25 17 21 11 33 18 14 15 12 11 15 27 26 32 11 27 23 27 24 20 24 22 21 18 16 12 10 8 7 6 6 6 5 6 8 9 9 9 8 9 10 11 12 13 14 16
7 17 21 34 26 18 8 19 25 26 22 17 11 9 13 31 26 36 33 29 26 26 25 17 21 19 17 14 12 10 9 8 6 5 5 6 8 9 9 10 11 13 15 16 18 17 17 18 19
13 19 30 28 30 15 18 28 34 26 21 8 12 13 13 17 24 20 34 32 29 27 26 27 24 20 18 16 14 11 9 7 6 6 6 7 9 10 11 13 15 16 16 19 19 19 19 20 21
11 23 30 21 41 31 16 24 24 25 15 4 16 25 25 25 18 33 36 33 30 27 25 27 24 22 19 16 14 12 11 10 9 8 7 7 8 11 13 15 18 18 20 21 22 22 22 22 23
21 27 25 30 42 20 21 14 13 15 9 14 1 21 26 18 29 37 35 31 30 28 24 27 25 21 18 16 15 14 13 12 10 8 8 9 12 15 17 19 21 23 24 25 25 24 23 24 24
32 35 27 29 23 16 8 12 15 14 12 14 25 30 26 27 33 33 31 31 29 24 29 25 23 20 18 17 17 15 12 10 9 10 13 17 20 22 23 24 25 26 27 28 29 29 29 29 30
34 26 30 36 40 36 13 12 20 16 10 13 23 25 26 30 32 34 32 31 30 28 24 24 23 22 20 18 16 12 9 8 10 15 20 22 22 21 22 22 24 27 28 29 31 33 34 35 36
40 27 39 25 26 11 21 13 13 14 15 15 14 15 33 37 37 35 33 31 29 28 25 26 21 22 17 17 12 7 5 9 14 20 23 23 30 30 32 25 29 30 33 35 37 37 38 38 39
26 26 28 29 23 7 26 18 15 12 11 11 11 7 45 44 40 38 35 33 31 29 28 23 25 21 12 13 11 8 6 11 23 26 20 19 12 17 16 32 36 34 34 35 34 36 37 37 31
34 25 38 27 4 20 29 14 29 15 18 19 20 31 44 46 43 41 37 35 33 32 29 25 21 17 17 10 10 6 9 13 17 17 19 15 23 26 30 30 44 47 46 40 45 44 37 29 25
40 36 33 18 14 21 11 12 22 21 27 29 28 41 45 45 42 39 37 36 34 32 28 25 23 23 19 11 7 3 5 10 18 19 19 22 19 28 26 25 25 29 29 25 28 25 24 28 27
37 41 48 36 5 22 17 8 17 22 10 33 33 40 45 45 43 40 39 37 36 33 29 21 25 18 14 9 6 4 6 11 8 18 17 23 21 30 31 27 24 24 25 28 26 24 28 29 29
42 39 36 41 14 23 27 16 21 29 12 10 40 41 44 44 41 39 38 38 36 33 31 24 25 24 19 17 11 2 6 6 9 10 22 26 25 33 23 23 22 23 23 25 26 26 28 28 27
28 44 43 33 31 24 23 26 20 26 31 22 38 42 42 44 44 41 40 38 37 34 32 27 24 22 22 16 11 6 10 7 6 11 23 28 22 27 18 20 20 21 23 24 24 27 26 24 25
38 27 33 27 29 29 23 30 24 31 38 31 36 41 41 43 44 43 39 36 34 32 31 29 26 21 20 16 5 5 2 3 6 11 27 27 24 19 19 18 19 20 22 24 23 27 20 22 23
28 30 32 38 34 18 22 34 36 40 32 37 41 41 39 42 43 41 39 35 32 29 32 27 19 21 14 16 1 8 3 2 4 7 11 21 19 18 17 16 18 22 20 21 22 23 20 21 22
25 30 36 40 35 25 30 36 38 53 39 39 41 40 42 41 41 40 38 37 43 46 28 23 23 16 19 10 3 8 5 3 3 6 9 17 16 16 15 16 20 23 19 17 20 18 15 16 17
18 32 30 16 29 22 34 32 31 11 25 37 41 42 40 42 43 40 42 43 42 33 32 27 24 22 15 6 4 7 3 2 4 6 9 11 13 15 14 17 20 21 17 18 16 21 15 16 17
21 26 22 18 4 7 28 30 35 35 28 37 43 43 42 40 42 41 42 35 38 33 31 31 27 20 17 10 14 10 6 2 2 5 10 10 10 14 14 13 16 18 19 21 21 13 19 18 18
23 25 26 19 8 23 29 32 32 30 31 35 39 42 46 44 45 51 46 41 37 34 30 28 26 21 17 17 18 16 11 7 6 3 7 9 11 12 12 15 15 19 18 23 22 23 17 18 22
25 28 24 27 15 21 30 25 28 27 25 35 38 43 47 51 49 58 49 48 42 37 34 31 28 26 22 23 21 17 11 5 6 7 5 7 10 11 12 13 13 19 17 21 24 22 21 19 17
25 28 19 24 25 25 39 26 35 40 37 35 44 48 49 50 51 58 54 52 46 40 36 31 28 25 28 25 18 17 10 8 11 8 7 4 8 9 11 12 13 16 17 21 22 21 23 18 18
13 6 13 19 24 29 32 19 30 17 25 27 36 52 51 50 55 57 59 55 47 44 41 39 34 28 28 30 21 15 15 16 12 10 9 15 8 10 7 8 11 13 11 18 20 21 22 20 18
25 12 26 25 25 28 36 34 29 27 33 26 31 42 45 48 53 55 58 56 54 46 44 38 36 32 32 30 26 22 23 18 16 13 7 6 4 5 6 3 5 8 7 12 14 15 18 18 16
25 21 20 23 23 26 34 34 31 9 11 19 21 33 52 48 56 58 64 63 57 51 43 38 37 39 36 32 27 24 22 19 17 15 11 12 7 6 3 4 5 4 7 8 9 14 13 16 14
24 24 23 30 23 23 15 13 23 23 24 25 18 28 24 36 54 61 66 63 59 58 52 47 43 40 38 34 30 26 23 17 15 17 13 9 10 9 6 4 2 3 3 2 6 7 7 8 8
27 21 26 26 29 24 24 21 11 23 22 25 31 33 31 35 51 63 59 58 67 59 54 46 47 43 41 36 32 28 24 21 18 20 18 15 15 10 11 8 3 3 2 2 1 5 7 7 7
24 24 16 18 28 31 30 23 20 17 16 10 24 29 31 47 57 56 55 60 67 56 55 50 49 47 43 38 34 29 25 23 21 17 19 17 16 13 10 7 3 3 3 2 3 5 6 6 7
10 24 14 17 22 23 24 15 29 10 23 17 24 42 32 28 62 49 53 59 63 57 57 55 53 50 46 41 36 32 27 24 21 18 18 16 14 13 11 7 3 4 3 4 4 4 2 7 10
19 31 34 20 28 15 26 28 23 10 25 18 26 26 9 31 36 42 48 58 62 64 61 58 56 52 48 44 38 34 30 27 25 22 18 17 13 11 9 9 6 3 2 6 5 5 7 10 13
Wind_Direction_850mb
284 291 297 262 246 244 334 92 86 122 124 63 52 332 32 28 31 95 134 125 129 131 131 134 140 141 142 139 138 130 120 102 90 80 70 48 30 24 19 18 13 6 354 341 328 318 310 305 303
248 263 265 269 252 248 95 304 70 64 96 111 107 110 78 62 66 121 124 130 133 124 123 142 139 141 148 143 144 134 118 108 95 69 42 37 37 37 28 16 1 349 342 333 324 319 315 311 305
249 256 271 241 250 276 233 104 93 99 115 166 111 40 37 89 100 117 135 134 130 127 137 154 154 161 147 144 137 129 118 111 100 89 73 59 44 24 9 356 349 344 348 346 343 333 320 313 308
241 243 246 259 261 13 35 78 97 119 99 228 112 89 83 126 114 138 134 135 134 128 143 140 144 148 147 141 135 131 128 124 115 101 74 45 12 342 338 331 331 329 329 330 330 328 324 323 322
238 261 259 240 263 83 66 59 128 102 125 141 201 99 101 117 128 135 137 134 131 141 139 142 147 145 145 141 139 132 122 110 93 74 42 7 348 336 329 325 322 321 320 320 319 318 317 315 313
237 237 255 251 231 89 119 161 138 172 127 103 109 122 105 134 140 143 139 138 138 135 142 136 145 146 145 143 135 130 118 96 66 27 4 348 339 332 325 321 320 319 319 317 316 314 311 309 307
249 245 253 271 68 256 123 171 167 146 163 141 141 112 134 147 146 145 143 142 139 142 142 132 137 148 146 141 131 122 103 63 22 1 351 347 344 344 339 338 336 331 324 319 314 310 307 305 304
247 266 275 259 279 100 93 186 157 172 112 110 176 139 156 151 150 146 145 142 141 140 135 134 145 130 121 141 130 113 58 14 358 354 355 5 16 4 349 351 342 335 329 323 318 313 308 304 303
243 264 255 250 238 153 121 178 175 185 129 178 108 126 150 153 152 149 148 146 144 142 140 139 143 166 134 118 88 45 8 1 358 357 1 23 14 4 9 339 342 335 330 326 319 314 310 310 314
239 238 251 277 235 259 124 229 150 177 193 161 137 122 146 152 156 155 154 152 149 148 150 149 162 147 128 133 92 78 32 349 341 355 10 25 4 359 10 351 349 344 345 357 338 339 357 342 313
225 249 256 277 276 278 98 190 145 212 179 173 164 146 154 158 161 160 157 159 157 155 153 156 191 150 156 177 103 49 9 19 355 4 16 357 5 350 350 348 346 341 334 338 338 340 323 327 324
233 242 261 283 163 256 250 233 180 214 294 153 163 160 162 165 166 165 162 160 159 162 160 163 170 155 159 150 152 46 2 11 14 348 5 359 358 350 350 349 355 353 349 343 344 338 337 339 335
230 249 234 253 273 255 249 227 261 192 188 207 159 167 171 174 173 171 169 167 167 167 168 182 173 186 211 233 258 278 18 341 1 5 348 352 356 350 353 359 359 357 353 353 353 342 343 347 346
226 239 257 255 233 233 250 232 228 234 166 196 166 176 179 180 180 176 178 176 174 176 174 177 181 212 233 240 225 296 292 3 15 344 343 349 0 354 13 1 1 357 356 1 358 356 358 354 1
249 267 234 243 238 245 229 247 217 237 181 183 177 185 182 189 187 185 185 184 181 178 174 181 204 219 218 219 216 149 93 64 16 358 342 351 1 12 31 4 4 3 1 2 1 5 7 16 14
235 235 244 218 219 214 218 242 207 223 209 185 190 191 191 192 192 188 188 186 182 176 176 174 171 197 209 201 119 139 178 75 15 8 354 0 8 26 15 12 5 13 3 5 7 14 18 24 24
209 244 218 262 171 229 205 249 251 204 187 206 194 203 197 191 190 189 188 183 191 196 198 197 203 209 181 176 255 216 272 103 18 19 8 4 15 21 32 16 9 25 22 20 15 19 23 22 17
241 207 252 229 183 205 234 234 253 167 186 215 199 206 197 195 190 189 189 197 205 190 200 208 190 195 188 262 229 156 154 117 46 30 14 39 16 21 53 8 29 32 33 20 23 16 14 1 343
307 310 287 198 22 242 231 247 240 173 216 215 208 203 198 197 208 200 196 194 178 197 205 208 205 210 230 207 152 178 207 178 37 25 43 44 46 30 45 27 36 34 34 30 22 20 1 10 354
255 256 255 271 145 251 243 233 227 216 200 221 222 210 205 202 205 204 191 190 187 183 197 195 203 211 190 161 167 181 171 169 154 124 43 63 41 49 26 60 37 70 20 26 26 20 10 1 2
239 256 252 254 169 242 265 261 237 226 200 214 229 228 218 205 203 186 188 191 189 188 188 193 199 206 170 181 190 187 194 159 109 55 54 53 55 59 60 60 66 40 47 28 26 35 9 12 10
260 210 241 273 253 252 203 251 216 221 224 216 224 228 228 212 205 187 189 191 195 188 185 189 189 189 182 183 180 169 183 178 172 156 178 60 89 86 79 77 62 58 41 46 35 31 35 28 18
278 56 254 261 250 252 251 241 280 297 205 220 220 224 223 221 204 191 195 197 195 189 197 181 189 187 189 178 182 189 169 193 153 170 134 185 114 107 95 73 51 49 47 33 35 29 33 23 29
289 247 249 243 250 241 240 261 261 242 221 221 229 236 207 212 202 196 188 193 194 190 182 184 187 180 189 188 190 170 187 167 172 169 158 159 150 113 114 85 40 37 37 34 17 33 26 30 46
223 249 257 226 222 234 236 223 233 295 253 210 246 253 200 186 197 191 182 188 193 189 185 179 181 182 186 188 190 192 187 175 176 173 170 183 186 198 193 97 120 40 50 19 39 29 19 28 46
196 239 258 291 289 316 117 223 240 250 257 294 292 288 307 177 198 188 184 193 192 192 185 187 181 179 183 184 187 184 186 173 172 155 199 177 193 210 220 158 141 13 21 353 26 358 49 36 36
279 228 260 282 277 274 280 262 247 217 222 233 248 243 228 222 197 182 185 193 190 191 189 180 180 180 180 179 181 183 172 177 181 187 177 195 187 223 186 196 220 330 342 223 191 353 48 45 26
258 306 280 231 256 268 274 258 282 148 178 308 342 313 229 218 176 179 193 192 190 189 188 183 181 182 179 179 181 182 177 178 186 183 161 189 195 181 194 199 251 312 323 207 180 345 5 25 358
238 244 247 339 296 294 289 268 59 190 302 4 329 324 357 326 159 179 188 192 189 187 187 183 182 181 179 178 179 181 181 179 180 181 185 190 195 196 191 220 260 312 311 195 210 201 8 325 327
283 286 295 294 285 335 319 291 320 292 286 289 298 347 53 99 230 201 184 186 186 187 186 184 183 183 181 177 178 182 181 182 183 180 179 175 172 183 194 217 229 263 238 201 199 258 275 302 311